Regional Weather Roundup
Issued by NWS

Home | Current Version | Previous Version | Text Only | Print | Product List | Glossary Off
Versions: 1 2 3 4 5 6 7 8 9 10 11 12 13 14 15 16 17 18 19 20 21 22 23 24 25 26 27 28 29 30 31 32 33 34 35 36 37 38 39 40 41 42 43 44 45 46 47 48 49 50

000
ASUS43 KIND 280609
RWRIN

WEATHER ROUNDUP FOR INDIANA
NATIONAL WEATHER SERVICE INDIANAPOLIS IN
200 AM EDT MON JUL 28 2014

NOTE: "FAIR" INDICATES FEW OR NO CLOUDS BELOW 12,000 FEET WITH NO
SIGNIFICANT WEATHER AND/OR OBSTRUCTIONS TO VISIBILITY.

* - STATION DOES NOT REPORT WEATHER SUCH AS PRECIPITATION OR FOG.

+ - STATION NOT QUALITY CONTROLLED BY THE NATIONAL WEATHER SERVICE.
    USE DATA WITH CAUTION...ESPECIALLY DEWPOINT AND RELATIVE
    HUMIDITY OBSERVATIONS.

INZ001>003-010>013-019-020-280700-
NORTHWEST INDIANA

CITY           SKY/WX    TMP DP  RH WIND       PRES   REMARKS
GARY /AIRPORT/ CLOUDY    65  55  68 N22G33    29.91S
KNOX *+        CLOUDY    63  57  80 N16G24    29.85S
LA PORTE +     RAIN      61  57  87 N15       29.87S
6HR MIN TEMP:  61; 6HR MAX TEMP:  70;

MICHIGAN CITY+ CLOUDY    63  54  72 N17G25    29.87S
MONTICELLO +   PTCLDY    63  60  91 NW7       29.86R
RENSSELAER +   CLOUDY    64  63  94 N7        29.89R
VALPARAISO     CLOUDY    63  55  75 N14G23    29.88S
6HR MIN TEMP:  63; 6HR MAX TEMP:  73; 6HR PCP: TRACE;


$$

LMZ046-743>745-280700-
SOUTHERN LAKE MICHIGAN

STATION/POSITION TIME  TEMP WIND        PRES
                       AIR  DIR/SP/G
                 (UTC) (F)  (DEG/KT/KT) (MB)
BURNS HARBOR     0600   65  360/ 25     1011.9F
MICHIGAN CITY    0600   64  340/ 33/ 43   N/A

$$

INZ004-005-014>016-021>024-280700-
NORTH CENTRAL INDIANA

CITY           SKY/WX    TMP DP  RH WIND       PRES   REMARKS
GOSHEN         CLOUDY    65  58  78 NW10      29.81S
6HR MIN TEMP:  65; 6HR MAX TEMP:  74;

LOGANSPORT +   MOCLDY    63  57  82 NW10G16   29.85S
PERU/GRISSOM   CLEAR     64  63  96 NW10      29.83S
6HR MIN TEMP:  64; 6HR MAX TEMP:  78; 6HR PCP: TRACE;

ROCHESTER +    MOCLDY    64  59  82 NW12G18   29.83F
SOUTH BEND     CLOUDY    63  57  81 N18G24    29.84S
6HR MIN TEMP:  63; 6HR MAX TEMP:  73;

WARSAW +       CLOUDY    63  59  88 NW13      29.81F

$$

INZ006>009-017-018-025>027-280700-
NORTHEAST INDIANA

CITY           SKY/WX    TMP DP  RH WIND       PRES   REMARKS
ANGOLA *+      CLOUDY    63  54  72 NW7       29.79R
AUBURN +       PTCLDY    63  55  77 NW8       29.79S
FORT WAYNE     MOCLDY    63  58  83 NW9       29.80R
6HR MIN TEMP:  63; 6HR MAX TEMP:  72; 6HR PCP:  0.12;

HUNTINGTON +   CLOUDY    64  58  83 NW6       29.80S
6HR MIN TEMP:  63; 6HR MAX TEMP:  73;


$$

INZ028-029-035-036-043>045-051>053-280700-
WEST CENTRAL INDIANA

CITY           SKY/WX    TMP DP  RH WIND       PRES   REMARKS
GREENCASTLE +  PTCLDY    66  57  72 NW7       29.88R
LAFAYETTE      MOCLDY    64  58  80 NW8       29.86R
6HR MIN TEMP:  63; 6HR MAX TEMP:  76;

TERRE HAUTE    CLEAR     68  58  70 NW14      29.88S
6HR MIN TEMP:  68; 6HR MAX TEMP:  80; 6HR PCP: TRACE;


$$

INZ030>032-037>040-046>048-054>057-064-065-280700-
CENTRAL INDIANA

CITY           SKY/WX    TMP DP  RH WIND       PRES   REMARKS
CP ATTERBURY + CLEAR     66  55  68 W6        29.85S
FRANKFORT +    CLEAR    N/A N/A N/A W6        29.87
INDIANAPOLIS   MOCLDY    66  57  72 W13       29.84S
6HR MIN TEMP:  66; 6HR MAX TEMP:  78;

-EAGLE CREEK   PTCLDY    67  57  70 NW14G23   29.84S
6HR MIN TEMP:  67; 6HR MAX TEMP:  78;

KOKOMO *+      PTCLDY    64  57  77 NW10      29.83S
MARION +       PTCLDY    62  58  87 NW10      29.83S
MT COMFORT *+  CLEAR     66  63  88 W9        29.85R
SHELBYVILLE    CLEAR     68  57  68 NW10      29.83S
6HR MIN TEMP:  68; 6HR MAX TEMP:  80;

ZIONSVILLE +   CLEAR     64  56  78 W8        29.86S
6HR MIN TEMP:  63; 6HR MAX TEMP:  77;


$$

INZ033-034-041-042-049-050-058-059-280700-
EAST CENTRAL INDIANA

CITY           SKY/WX    TMP DP  RH WIND       PRES   REMARKS
MUNCIE         CLEAR     64  58  80 NW9       29.81S
6HR MIN TEMP:  64; 6HR MAX TEMP:  77; 6HR PCP: TRACE;


$$

INZ060-061-067>069-081>083-085>088-280700-
SOUTHWEST INDIANA

CITY           SKY/WX    TMP DP  RH WIND       PRES   REMARKS
EVANSVILLE     CLEAR     71  58  63 W5        29.93R
6HR MIN TEMP:  71; 6HR MAX TEMP:  87;

WASHINGTON +   CLEAR     66  60  80 W7        29.90S
6HR MIN TEMP:  66; 6HR MAX TEMP:  82;


$$

INZ062-063-066-070>080-084-089>092-280700-
SOUTH CENTRAL AND SOUTHEAST INDIANA

CITY           SKY/WX    TMP DP  RH WIND       PRES   REMARKS
BLOOMINGTON    CLEAR     66  58  75 W6        29.88S
6HR MIN TEMP:  66; 6HR MAX TEMP:  78;

NORTH VERNON + CLEAR     66  61  82 W6        29.86R
SEYMOUR +      CLEAR     61  46  59 W8        29.86

$$




USA.gov is the U.S. government's official web portal to all federal, state and local government web resources and services.